Flag for U.S.A. Weather past 2 weeks in Hampton, Virginia, U.S.A.

Now
86 °F

Sunny.


Feels Like: 95 °F
Forecast: 76 / 86 °F
Wind: 8 mph from South

Location: Langley Air Force Base

Current Time: Jul 30, 2015 at 9:54:23 PM

Latest Report: Jul 30, 2015 at 8:59 PM


Visibility: 10 mi

Pressure: 29.87 "Hg

Humidity: 70%

Dew point: 75 °F

Location of HamptonLocation

Historic Weather in Hampton — Graph

°F

Hampton temperature yesterday

Maximum temperature yesterday: 88 °F (at 1:58 PM)
Minimum temperature yesterday: 75 °F (at 6:58 AM)
Average temperature yesterday: 82 °F

Past Weeks' High & Low Weather Summary

 TemperatureHumidityPressure
High93 °F (Jul 20, 4:58 PM)96% (Jul 17, 5:58 AM)30.11 "Hg (Jul 17, 5:58 AM)
Low67 °F (Jul 25, 3:58 AM)39% (Jul 25, 11:58 AM)29.65 "Hg (Jul 21, 3:58 PM)
Average79 °F74%29.95 "Hg
* Reported Jul 15 7:58 PM — Jul 30 7:58 PM, Hampton, Weather by CustomWeather, © 2015

Note: Actual official high and low records may vary slightly from our data, if they occured in-between our weather recording intervals... More about our weather records

Advertising

Hampton weather history for previous 24 hours

 ConditionsComfort  
Time TempWeatherWind HumidityBarometerVisibility
7:58 PM
Thu, Jul 30
87 °FPartly sunny.2 mph63%29.89 "Hg8 mi
6:58 PM88 °FPartly sunny.5 mph61%29.87 "Hg10 mi
5:58 PM90 °FPartly sunny.3 mph56%29.87 "Hg10 mi
4:58 PM92 °FBroken clouds.10 mph59%29.88 "Hg10 mi
3:58 PM88 °FSunny.10 mph65%29.88 "Hg10 mi
2:58 PM89 °FPassing clouds.9 mph62%29.91 "Hg9 mi
1:58 PM90 °FSunny.9 mph54%29.94 "Hg9 mi
12:58 PM90 °FSunny.8 mph49%29.96 "Hg9 mi
11:58 AM88 °FSunny.5 mph56%29.97 "Hg9 mi
10:58 AM85 °FSunny.5 mph64%29.97 "Hg9 mi
9:58 AM84 °FSunny.6 mph66%29.98 "Hg9 mi
8:58 AM82 °FSunny.9 mph77%29.98 "Hg10 mi
7:58 AM80 °FSunny.6 mph82%29.98 "Hg10 mi
6:58 AM74 °FClear.5 mph90%29.98 "Hg10 mi
5:58 AM76 °FClear.3 mph86%29.97 "Hg10 mi
4:58 AM76 °FClear.6 mph85%29.97 "Hg10 mi
3:58 AM76 °FClear.5 mph83%29.98 "Hg10 mi
2:58 AM77 °FClear.6 mph80%29.98 "Hg10 mi
1:58 AM78 °FClear.8 mph81%29.99 "Hg10 mi
12:58 AM79 °FClear.8 mph80%30.01 "Hg10 mi
11:58 PM
Wed, Jul 29
79 °FClear.10 mph80%30.02 "Hg10 mi
10:58 PM80 °FClear.8 mph76%30.02 "Hg10 mi
9:58 PM80 °FClear.9 mph75%30.02 "Hg10 mi
Weather by CustomWeather, © 2015

See weather overviewHow to use our weather pages